| time (UTC) | temp F | wind direction | speed knots | gust knots | rain 1hr in | rain 24hr in | rain mn in | humidity % | barometer mb |
| 20260510144017 | 74 | 134 | 1.7 | 3.5 | 0.00 | 0.00 | 0.00 | 57 | 1013.1 |
| 20260510143515 | 74 | 38 | 0.0 | 1.7 | 0.00 | 0.00 | 0.00 | 57 | 1013.1 |
| 20260510143033 | 74 | 123 | 0.9 | 2.6 | 0.00 | 0.00 | 0.00 | 55 | 1013.0 |
| 20260510142518 | 74 | 79 | 0.9 | 2.6 | 0.00 | 0.00 | 0.00 | 54 | 1012.8 |
| 20260510142018 | 73 | 334 | 0.9 | 2.6 | 0.00 | 0.00 | 0.00 | 55 | 1012.9 |
| 20260510141532 | 73 | 0 | 0.0 | 3.5 | 0.00 | 0.00 | 0.00 | 55 | 1013.0 |
| 20260510141019 | 72 | 0 | 0.0 | 3.5 | 0.00 | 0.00 | 0.00 | 56 | 1013.1 |
| 20260510140517 | 72 | 190 | 0.0 | 3.5 | 0.00 | 0.00 | 0.00 | 57 | 1013.2 |
| 20260510140031 | 71 | 153 | 1.7 | 3.5 | 0.00 | 0.00 | 0.00 | 61 | 1013.2 |
| 20260510135517 | 71 | 198 | 1.7 | 3.5 | 0.00 | 0.00 | 0.00 | 57 | 1013.2 |
| 20260510135015 | 71 | 348 | 0.9 | 2.6 | 0.00 | 0.00 | 0.00 | 63 | 1013.2 |
| 20260510134535 | 71 | 11 | 0.9 | 2.6 | 0.00 | 0.00 | 0.00 | 58 | 1013.2 |
| 20260510134015 | 70 | 194 | 0.9 | 2.6 | 0.00 | 0.00 | 0.00 | 66 | 1013.2 |
| 20260510133515 | 70 | 141 | 0.0 | 1.7 | 0.00 | 0.00 | 0.00 | 65 | 1013.2 |
| 20260510133032 | 70 | 213 | 0.9 | 2.6 | 0.00 | 0.00 | 0.00 | 64 | 1013.1 |
| 20260510132515 | 69 | 336 | 0.9 | 2.6 | 0.00 | 0.00 | 0.00 | 65 | 1013.1 |
| 20260510132014 | 69 | 0 | 0.0 | 1.7 | 0.00 | 0.00 | 0.00 | 68 | 1013.1 |
| 20260510131532 | 68 | 0 | 0.0 | 1.7 | 0.00 | 0.00 | 0.00 | 69 | 1013.0 |
| 20260510131015 | 67 | 0 | 0.0 | 1.7 | 0.00 | 0.00 | 0.00 | 73 | 1013.1 |
| 20260510130515 | 66 | 188 | 0.0 | 3.5 | 0.00 | 0.00 | 0.00 | 75 | 1013.3 |
| 20260510130033 | 66 | 190 | 0.9 | 3.5 | 0.00 | 0.00 | 0.00 | 73 | 1013.3 |
| 20260510125519 | 65 | 221 | 0.9 | 1.7 | 0.00 | 0.00 | 0.00 | 72 | 1013.4 |
| 20260510125014 | 65 | 190 | 0.0 | 1.7 | 0.00 | 0.00 | 0.00 | 73 | 1013.5 |
| 20260510124542 | 64 | 301 | 0.0 | 1.7 | 0.00 | 0.00 | 0.00 | 76 | 1013.5 |
| 20260510124014 | 64 | 82 | 0.0 | 1.7 | 0.00 | 0.00 | 0.00 | 75 | 1013.5 |
| 20260510123515 | 63 | 68 | 0.0 | 1.7 | 0.00 | 0.00 | 0.00 | 79 | 1013.4 |
| 20260510123032 | 62 | 0 | 0.0 | 1.7 | 0.00 | 0.00 | 0.00 | 79 | 1013.5 |
| 20260510122515 | 61 | 0 | 0.0 | 1.7 | 0.00 | 0.00 | 0.00 | 79 | 1013.4 |
| 20260510122015 | 61 | 0 | 0.0 | 1.7 | 0.00 | 0.00 | 0.00 | 81 | 1013.4 |
| 20260510121532 | 60 | 0 | 0.0 | 1.7 | 0.00 | 0.00 | 0.00 | 87 | 1013.4 |
| 20260510121016 | 59 | 0 | 0.0 | 1.7 | 0.00 | 0.00 | 0.00 | 84 | 1013.3 |
| 20260510120517 | 58 | 0 | 0.0 | 1.7 | 0.00 | 0.00 | 0.00 | 87 | 1013.2 |
| 20260510120032 | 57 | 0 | 0.0 | 1.7 | 0.00 | 0.00 | 0.00 | 89 | 1013.3 |
| 20260510115518 | 56 | 0 | 0.0 | 1.7 | 0.00 | 0.00 | 0.00 | 91 | 1013.2 |
| 20260510115016 | 55 | 0 | 0.0 | 1.7 | 0.00 | 0.00 | 0.00 | 97 | 1013.2 |
| 20260510114533 | 54 | 63 | 0.0 | 1.7 | 0.00 | 0.00 | 0.00 | 97 | 1013.2 |
| 20260510114016 | 53 | 0 | 0.0 | 1.7 | 0.00 | 0.00 | 0.00 | 97 | 1013.1 |
| 20260510113514 | 53 | 0 | 0.0 | 0.0 | 0.00 | 0.00 | 0.00 | 97 | 1013.1 |
| 20260510113037 | 52 | 0 | 0.0 | 1.7 | 0.00 | 0.00 | 0.00 | 97 | 1012.9 |
| 20260510112519 | 51 | 0 | 0.0 | 1.7 | 0.00 | 0.00 | 0.00 | 97 | 1012.8 |
| 20260510112015 | 51 | 0 | 0.0 | 1.7 | 0.00 | 0.00 | 0.00 | 97 | 1012.7 |
| 20260510111538 | 50 | 0 | 0.0 | 0.0 | 0.00 | 0.00 | 0.00 | 97 | 1012.7 |
| 20260510111014 | 50 | 0 | 0.0 | 1.7 | 0.00 | 0.00 | 0.00 | 96 | 1012.5 |
| 20260510110515 | 50 | 0 | 0.0 | 1.7 | 0.00 | 0.00 | 0.00 | 96 | 1012.5 |
| 20260510110037 | 50 | 0 | 0.0 | 1.7 | 0.00 | 0.00 | 0.00 | 96 | 1012.5 |
| 20260510105515 | 49 | 0 | 0.0 | 0.0 | 0.00 | 0.00 | 0.00 | 96 | 1012.5 |
| 20260510105015 | 49 | 0 | 0.0 | 0.0 | 0.00 | 0.00 | 0.00 | 96 | 1012.4 |
| 20260510104532 | 49 | 0 | 0.0 | 0.0 | 0.00 | 0.00 | 0.00 | 96 | 1012.1 |
| 20260510104014 | 49 | 0 | 0.0 | 0.0 | 0.00 | 0.00 | 0.00 | 96 | 1011.9 |
| 20260510103517 | 49 | 0 | 0.0 | 0.0 | 0.00 | 0.00 | 0.00 | 95 | 1011.9 |
| 20260510103034 | 49 | 0 | 0.0 | 1.7 | 0.00 | 0.00 | 0.00 | 95 | 1011.8 |
| 20260510102518 | 49 | 0 | 0.0 | 1.7 | 0.00 | 0.00 | 0.00 | 95 | 1011.8 |
| 20260510102022 | 49 | 0 | 0.0 | 1.7 | 0.00 | 0.00 | 0.00 | 96 | 1011.6 |
| 20260510101539 | 49 | 0 | 0.0 | 0.0 | 0.00 | 0.00 | 0.00 | 95 | 1011.6 |
| 20260510101018 | 49 | 0 | 0.0 | 0.0 | 0.00 | 0.00 | 0.00 | 95 | 1011.6 |
| 20260510100518 | 49 | 0 | 0.0 | 1.7 | 0.00 | 0.00 | 0.00 | 95 | 1011.6 |
| 20260510100038 | 49 | 0 | 0.0 | 1.7 | 0.00 | 0.00 | 0.00 | 95 | 1011.6 |
| 20260510095518 | 49 | 109 | 0.0 | 1.7 | 0.00 | 0.00 | 0.00 | 95 | 1011.6 |
| 20260510095018 | 49 | 0 | 0.0 | 0.0 | 0.00 | 0.00 | 0.00 | 95 | 1011.7 |
| 20260510094533 | 50 | 0 | 0.0 | 0.0 | 0.00 | 0.00 | 0.00 | 95 | 1011.7 |
| 20260510094018 | 50 | 0 | 0.0 | 1.7 | 0.00 | 0.00 | 0.00 | 95 | 1011.6 |
| 20260510093519 | 50 | 0 | 0.0 | 1.7 | 0.00 | 0.00 | 0.00 | 95 | 1011.7 |
| 20260510093055 | 50 | 109 | 0.0 | 1.7 | 0.00 | 0.00 | 0.00 | 95 | 1011.8 |
| 20260510092519 | 50 | 98 | 0.0 | 0.0 | 0.00 | 0.00 | 0.00 | 95 | 1011.7 |
| 20260510092018 | 50 | 0 | 0.0 | 0.0 | 0.00 | 0.00 | 0.00 | 95 | 1011.6 |
| 20260510091532 | 50 | 0 | 0.0 | 0.0 | 0.00 | 0.00 | 0.00 | 95 | 1011.4 |
| 20260510091018 | 50 | 0 | 0.0 | 0.0 | 0.00 | 0.00 | 0.00 | 95 | 1011.5 |
| 20260510090518 | 50 | 0 | 0.0 | 0.0 | 0.00 | 0.00 | 0.00 | 95 | 1011.4 |
| 20260510090050 | 50 | 0 | 0.0 | 0.0 | 0.00 | 0.00 | 0.00 | 95 | 1011.3 |
| 20260510085518 | 50 | 0 | 0.0 | 0.0 | 0.00 | 0.00 | 0.00 | 95 | 1011.3 |
| 20260510085020 | 50 | 0 | 0.0 | 0.0 | 0.00 | 0.00 | 0.00 | 95 | 1011.2 |
| 20260510084539 | 50 | 0 | 0.0 | 0.0 | 0.00 | 0.00 | 0.00 | 96 | 1011.2 |
| 20260510084020 | 50 | 0 | 0.0 | 0.0 | 0.00 | 0.00 | 0.00 | 95 | 1011.2 |
| 20260510083518 | 50 | 0 | 0.0 | 0.0 | 0.00 | 0.00 | 0.00 | 95 | 1011.2 |
| 20260510083032 | 50 | 0 | 0.0 | 0.0 | 0.00 | 0.00 | 0.00 | 95 | 1011.2 |
| 20260510082518 | 50 | 0 | 0.0 | 0.0 | 0.00 | 0.00 | 0.00 | 94 | 1011.2 |
| 20260510082018 | 50 | 0 | 0.0 | 0.0 | 0.00 | 0.00 | 0.00 | 94 | 1011.1 |
| 20260510081533 | 50 | 0 | 0.0 | 0.0 | 0.00 | 0.00 | 0.00 | 94 | 1011.0 |
| 20260510081019 | 50 | 0 | 0.0 | 0.0 | 0.00 | 0.00 | 0.00 | 94 | 1010.8 |
| 20260510080519 | 51 | 0 | 0.0 | 0.0 | 0.00 | 0.00 | 0.00 | 94 | 1010.8 |
| 20260510080045 | 51 | 0 | 0.0 | 0.0 | 0.00 | 0.00 | 0.00 | 94 | 1010.6 |
| 20260510075517 | 51 | 0 | 0.0 | 0.0 | 0.00 | 0.00 | 0.00 | 94 | 1010.5 |
| 20260510075021 | 51 | 0 | 0.0 | 0.0 | 0.00 | 0.00 | 0.00 | 94 | 1010.4 |
| 20260510074540 | 51 | 0 | 0.0 | 0.0 | 0.00 | 0.00 | 0.00 | 94 | 1010.3 |
| 20260510074019 | 51 | 0 | 0.0 | 0.0 | 0.00 | 0.00 | 0.00 | 94 | 1010.3 |
| 20260510073519 | 51 | 0 | 0.0 | 0.0 | 0.00 | 0.00 | 0.00 | 94 | 1010.4 |
| 20260510073039 | 51 | 0 | 0.0 | 0.0 | 0.00 | 0.00 | 0.00 | 94 | 1010.3 |
| 20260510072519 | 51 | 0 | 0.0 | 0.0 | 0.00 | 0.00 | 0.00 | 94 | 1010.3 |
| 20260510072018 | 52 | 0 | 0.0 | 0.0 | 0.00 | 0.00 | 0.00 | 94 | 1010.3 |
| 20260510071535 | 52 | 0 | 0.0 | 0.0 | 0.00 | 0.00 | 0.00 | 94 | 1010.4 |
| 20260510071018 | 52 | 0 | 0.0 | 0.0 | 0.00 | 0.00 | 0.00 | 94 | 1010.3 |
| 20260510070515 | 52 | 0 | 0.0 | 0.0 | 0.00 | 0.00 | 0.00 | 94 | 1010.2 |
| 20260510070033 | 52 | 0 | 0.0 | 0.0 | 0.00 | 0.00 | 0.00 | 94 | 1010.2 |
| 20260510065519 | 52 | 0 | 0.0 | 0.0 | 0.00 | 0.00 | 0.00 | 94 | 1010.1 |
| 20260510065017 | 52 | 0 | 0.0 | 0.0 | 0.00 | 0.00 | 0.00 | 94 | 1010.0 |
| 20260510064534 | 52 | 0 | 0.0 | 0.0 | 0.00 | 0.00 | 0.00 | 94 | 1010.1 |
| 20260510064015 | 52 | 0 | 0.0 | 0.0 | 0.00 | 0.00 | 0.00 | 94 | 1010.0 |
| 20260510063519 | 53 | 0 | 0.0 | 0.0 | 0.00 | 0.00 | 0.00 | 93 | 1010.0 |
| 20260510063031 | 53 | 0 | 0.0 | 0.0 | 0.00 | 0.00 | 0.00 | 93 | 1010.1 |
| 20260510062516 | 53 | 0 | 0.0 | 0.0 | 0.00 | 0.00 | 0.00 | 93 | 1010.0 |
| 20260510062015 | 53 | 0 | 0.0 | 0.0 | 0.00 | 0.00 | 0.00 | 93 | 1010.1 |
| 20260510061531 | 53 | 0 | 0.0 | 0.0 | 0.00 | 0.00 | 0.00 | 93 | 1010.0 |
| 20260510061017 | 53 | 0 | 0.0 | 0.0 | 0.00 | 0.00 | 0.00 | 93 | 1010.0 |
| 20260510060515 | 53 | 0 | 0.0 | 0.0 | 0.00 | 0.00 | 0.00 | 93 | 1010.0 |
| 20260510060034 | 53 | 0 | 0.0 | 0.0 | 0.00 | 0.00 | 0.00 | 93 | 1010.1 |
| 20260510055518 | 53 | 0 | 0.0 | 0.0 | 0.00 | 0.00 | 0.00 | 92 | 1010.1 |
| 20260510055015 | 53 | 0 | 0.0 | 0.0 | 0.00 | 0.00 | 0.00 | 93 | 1010.1 |
| 20260510054532 | 54 | 0 | 0.0 | 0.0 | 0.00 | 0.00 | 0.00 | 93 | 1010.2 |
| 20260510054016 | 54 | 0 | 0.0 | 0.0 | 0.00 | 0.00 | 0.00 | 92 | 1010.2 |
| 20260510053514 | 54 | 0 | 0.0 | 0.9 | 0.00 | 0.00 | 0.00 | 92 | 1010.1 |
| 20260510053033 | 54 | 0 | 0.0 | 0.9 | 0.00 | 0.00 | 0.00 | 92 | 1010.2 |
| 20260510052515 | 54 | 0 | 0.0 | 0.9 | 0.00 | 0.00 | 0.00 | 92 | 1010.1 |
| 20260510052017 | 54 | 0 | 0.0 | 0.9 | 0.00 | 0.00 | 0.00 | 92 | 1010.1 |
| 20260510051533 | 54 | 84 | 0.0 | 0.9 | 0.00 | 0.00 | 0.00 | 92 | 1010.1 |
| 20260510051016 | 54 | 0 | 0.0 | 0.0 | 0.00 | 0.00 | 0.00 | 92 | 1010.1 |
| 20260510050518 | 54 | 0 | 0.0 | 0.0 | 0.00 | 0.00 | 0.00 | 92 | 1010.1 |
| 20260510050031 | 54 | 0 | 0.0 | 1.7 | 0.00 | 0.00 | 0.00 | 92 | 1010.2 |
| 20260510045515 | 55 | 0 | 0.0 | 1.7 | 0.00 | 0.00 | 0.00 | 92 | 1010.2 |
| 20260510045016 | 55 | 0 | 0.0 | 1.7 | 0.00 | 0.00 | 0.00 | 92 | 1010.2 |
| 20260510044542 | 55 | 0 | 0.0 | 0.9 | 0.00 | 0.00 | 0.00 | 92 | 1010.2 |
| 20260510044016 | 55 | 84 | 0.0 | 0.9 | 0.00 | 0.00 | 0.00 | 91 | 1010.3 |
| 20260510043516 | 55 | 0 | 0.0 | 0.0 | 0.00 | 0.00 | 0.00 | 91 | 1010.3 |
| 20260510043032 | 55 | 0 | 0.0 | 0.0 | 0.00 | 0.00 | 0.00 | 91 | 1010.3 |
| 20260510042514 | 55 | 0 | 0.0 | 0.0 | 0.00 | 0.00 | 0.00 | 91 | 1010.4 |
| 20260510042016 | 55 | 0 | 0.0 | 0.0 | 0.00 | 0.00 | 0.00 | 90 | 1010.2 |
| 20260510041532 | 55 | 0 | 0.0 | 0.0 | 0.00 | 0.00 | 0.00 | 90 | 1010.2 |
| 20260510041017 | 56 | 0 | 0.0 | 0.0 | 0.00 | 0.00 | 0.00 | 90 | 1010.2 |
| 20260510040516 | 56 | 0 | 0.0 | 0.0 | 0.00 | 0.00 | 0.00 | 90 | 1010.1 |
| 20260510040032 | 56 | 0 | 0.0 | 0.0 | 0.00 | 0.00 | 0.00 | 90 | 1010.1 |
| 20260510035516 | 56 | 0 | 0.0 | 0.0 | 0.00 | 0.00 | 0.00 | 90 | 1010.1 |
| 20260510035015 | 56 | 0 | 0.0 | 1.7 | 0.00 | 0.00 | 0.00 | 89 | 1010.1 |
| 20260510034535 | 56 | 0 | 0.0 | 1.7 | 0.00 | 0.00 | 0.00 | 89 | 1010.1 |
| 20260510034014 | 56 | 0 | 0.0 | 0.0 | 0.00 | 0.00 | 0.00 | 89 | 1010.0 |
| 20260510033515 | 57 | 0 | 0.0 | 0.0 | 0.00 | 0.00 | 0.00 | 88 | 1010.1 |
| 20260510033032 | 57 | 0 | 0.0 | 0.0 | 0.00 | 0.00 | 0.00 | 88 | 1010.1 |
| 20260510032516 | 57 | 0 | 0.0 | 0.0 | 0.00 | 0.00 | 0.00 | 88 | 1010.0 |
| 20260510032017 | 57 | 0 | 0.0 | 0.0 | 0.00 | 0.00 | 0.00 | 88 | 1010.1 |
| 20260510031540 | 57 | 0 | 0.0 | 0.0 | 0.00 | 0.00 | 0.00 | 87 | 1010.0 |
| 20260510031016 | 58 | 0 | 0.0 | 0.0 | 0.00 | 0.00 | 0.00 | 87 | 1010.0 |
| 20260510030518 | 58 | 0 | 0.0 | 0.0 | 0.00 | 0.00 | 0.00 | 86 | 1009.9 |
| 20260510030038 | 58 | 0 | 0.0 | 0.0 | 0.00 | 0.00 | 0.00 | 86 | 1009.9 |
| 20260510025515 | 58 | 0 | 0.0 | 0.0 | 0.00 | 0.00 | 0.00 | 86 | 1009.9 |
| 20260510025018 | 59 | 0 | 0.0 | 1.7 | 0.00 | 0.00 | 0.00 | 85 | 1009.9 |
| 20260510024531 | 59 | 0 | 0.0 | 1.7 | 0.00 | 0.00 | 0.00 | 85 | 1009.8 |
| 20260510024015 | 59 | 0 | 0.0 | 1.7 | 0.00 | 0.00 | 0.00 | 85 | 1009.8 |
| 20260510023519 | 59 | 0 | 0.0 | 1.7 | 0.00 | 0.00 | 0.00 | 84 | 1009.9 |
| 20260510023033 | 59 | 0 | 0.0 | 0.9 | 0.00 | 0.00 | 0.00 | 84 | 1009.8 |
| 20260510022518 | 59 | 0 | 0.0 | 0.9 | 0.00 | 0.00 | 0.00 | 84 | 1009.8 |
| 20260510022014 | 59 | 0 | 0.0 | 0.9 | 0.00 | 0.00 | 0.00 | 84 | 1009.9 |
| 20260510021534 | 59 | 0 | 0.0 | 0.9 | 0.00 | 0.00 | 0.00 | 83 | 1009.8 |
| 20260510021014 | 60 | 0 | 0.0 | 1.7 | 0.00 | 0.00 | 0.00 | 83 | 1009.8 |
| 20260510020517 | 60 | 0 | 0.0 | 1.7 | 0.00 | 0.00 | 0.00 | 83 | 1009.8 |
| 20260510020031 | 60 | 0 | 0.0 | 1.7 | 0.00 | 0.00 | 0.00 | 83 | 1009.7 |
| 20260510015520 | 60 | 0 | 0.0 | 1.7 | 0.00 | 0.00 | 0.00 | 83 | 1009.6 |
| 20260510015015 | 61 | 88 | 0.0 | 1.7 | 0.00 | 0.00 | 0.00 | 82 | 1009.5 |
| 20260510014530 | 61 | 0 | 0.0 | 1.7 | 0.00 | 0.00 | 0.00 | 81 | 1009.4 |
| 20260510014015 | 61 | 88 | 0.0 | 1.7 | 0.00 | 0.00 | 0.00 | 81 | 1009.3 |
| 20260510013517 | 61 | 0 | 0.0 | 1.7 | 0.00 | 0.00 | 0.00 | 80 | 1009.3 |
| 20260510013033 | 62 | 78 | 0.0 | 1.7 | 0.00 | 0.00 | 0.00 | 80 | 1009.3 |
| 20260510012515 | 62 | 0 | 0.0 | 1.7 | 0.00 | 0.00 | 0.00 | 80 | 1009.3 |
| 20260510012019 | 62 | 140 | 0.0 | 1.7 | 0.00 | 0.00 | 0.00 | 79 | 1009.3 |
| 20260510011532 | 62 | 0 | 0.0 | 1.7 | 0.00 | 0.00 | 0.00 | 78 | 1009.2 |
| 20260510011017 | 62 | 128 | 0.0 | 1.7 | 0.00 | 0.00 | 0.00 | 77 | 1009.1 |
| 20260510010517 | 63 | 0 | 0.0 | 1.7 | 0.00 | 0.00 | 0.00 | 77 | 1009.1 |
| 20260510010038 | 63 | 92 | 0.0 | 1.7 | 0.00 | 0.00 | 0.00 | 76 | 1009.1 |
| 20260510005516 | 63 | 98 | 0.0 | 1.7 | 0.00 | 0.00 | 0.00 | 75 | 1009.0 |
| 20260510005018 | 63 | 98 | 0.0 | 1.7 | 0.00 | 0.00 | 0.00 | 75 | 1009.0 |
| 20260510004532 | 64 | 0 | 0.0 | 1.7 | 0.00 | 0.00 | 0.00 | 74 | 1009.1 |
| 20260510004019 | 64 | 90 | 0.0 | 1.7 | 0.00 | 0.00 | 0.00 | 73 | 1009.0 |
| 20260510003515 | 64 | 0 | 0.0 | 1.7 | 0.00 | 0.00 | 0.00 | 72 | 1009.0 |
| 20260510003034 | 64 | 120 | 0.0 | 1.7 | 0.00 | 0.00 | 0.00 | 71 | 1008.8 |
| 20260510002514 | 65 | 0 | 0.0 | 1.7 | 0.00 | 0.00 | 0.00 | 71 | 1009.0 |
| 20260510002014 | 65 | 0 | 0.0 | 1.7 | 0.00 | 0.00 | 0.00 | 71 | 1008.9 |
| 20260510001532 | 65 | 119 | 0.0 | 1.7 | 0.00 | 0.00 | 0.00 | 70 | 1008.9 |
| 20260510001017 | 66 | 99 | 0.0 | 1.7 | 0.00 | 0.00 | 0.00 | 70 | 1008.9 |
| 20260510000515 | 66 | 0 | 0.0 | 1.7 | 0.00 | 0.00 | 0.00 | 69 | 1008.9 |
| 20260510000030 | 66 | 51 | 0.0 | 1.7 | 0.00 | 0.00 | 0.00 | 69 | 1008.8 |
| 20260509235517 | 66 | 0 | 0.0 | 2.6 | 0.00 | 0.00 | 0.00 | 69 | 1008.7 |
| 20260509235015 | 67 | 0 | 0.0 | 2.6 | 0.00 | 0.00 | 0.00 | 69 | 1008.7 |
| 20260509234530 | 67 | 119 | 0.0 | 1.7 | 0.00 | 0.00 | 0.00 | 69 | 1008.6 |
| 20260509234017 | 67 | 0 | 0.0 | 1.7 | 0.00 | 0.00 | 0.00 | 68 | 1008.5 |
| 20260509233516 | 67 | 91 | 0.0 | 1.7 | 0.00 | 0.00 | 0.00 | 68 | 1008.5 |
| 20260509233036 | 67 | 0 | 0.0 | 1.7 | 0.00 | 0.00 | 0.00 | 68 | 1008.5 |
| 20260509232517 | 67 | 140 | 0.0 | 2.6 | 0.00 | 0.00 | 0.00 | 67 | 1008.5 |
| 20260509232017 | 68 | 108 | 0.0 | 3.5 | 0.00 | 0.00 | 0.00 | 67 | 1008.5 |
| 20260509231533 | 68 | 133 | 0.0 | 3.5 | 0.00 | 0.00 | 0.00 | 66 | 1008.5 |
| 20260509231015 | 68 | 120 | 0.9 | 3.5 | 0.00 | 0.00 | 0.00 | 65 | 1008.3 |
| 20260509230518 | 68 | 221 | 0.0 | 1.7 | 0.00 | 0.00 | 0.00 | 62 | 1008.4 |
| 20260509230033 | 69 | 93 | 0.0 | 1.7 | 0.00 | 0.00 | 0.00 | 65 | 1008.4 |
| 20260509225519 | 69 | 245 | 0.0 | 1.7 | 0.00 | 0.00 | 0.00 | 62 | 1008.5 |
| 20260509225017 | 69 | 94 | 0.9 | 3.5 | 0.00 | 0.00 | 0.00 | 66 | 1008.4 |
| 20260509224537 | 69 | 130 | 0.0 | 3.5 | 0.00 | 0.00 | 0.00 | 66 | 1008.3 |
| 20260509224015 | 69 | 160 | 0.0 | 2.6 | 0.00 | 0.00 | 0.00 | 66 | 1008.4 |
| 20260509223515 | 68 | 78 | 0.9 | 3.5 | 0.00 | 0.00 | 0.00 | 66 | 1008.4 |
| 20260509223034 | 68 | 64 | 0.0 | 3.5 | 0.00 | 0.00 | 0.00 | 62 | 1008.4 |
| 20260509222515 | 68 | 78 | 0.9 | 3.5 | 0.00 | 0.00 | 0.00 | 64 | 1008.5 |
| 20260509222017 | 69 | 86 | 0.0 | 2.6 | 0.00 | 0.00 | 0.00 | 65 | 1008.4 |
| 20260509221531 | 69 | 180 | 0.9 | 2.6 | 0.00 | 0.00 | 0.00 | 65 | 1008.4 |
| 20260509221020 | 69 | 79 | 0.9 | 3.5 | 0.00 | 0.00 | 0.00 | 62 | 1008.4 |
| 20260509220520 | 69 | 0 | 0.9 | 3.5 | 0.00 | 0.00 | 0.00 | 62 | 1008.4 |
| 20260509220032 | 69 | 111 | 0.0 | 3.5 | 0.00 | 0.00 | 0.00 | 62 | 1008.4 |
| 20260509215517 | 69 | 69 | 0.9 | 3.5 | 0.00 | 0.00 | 0.00 | 64 | 1008.4 |
| 20260509215018 | 69 | 35 | 0.9 | 2.6 | 0.00 | 0.00 | 0.00 | 65 | 1008.5 |
| 20260509214542 | 69 | 124 | 0.9 | 2.6 | 0.00 | 0.00 | 0.00 | 64 | 1008.5 |
| 20260509214019 | 68 | 97 | 0.9 | 2.6 | 0.00 | 0.00 | 0.00 | 64 | 1008.5 |
| 20260509213518 | 68 | 56 | 0.0 | 1.7 | 0.00 | 0.00 | 0.00 | 66 | 1008.5 |
| 20260509213033 | 68 | 0 | 0.0 | 2.6 | 0.00 | 0.00 | 0.00 | 68 | 1008.5 |
| 20260509212517 | 68 | 0 | 0.0 | 2.6 | 0.00 | 0.00 | 0.00 | 64 | 1008.5 |
| 20260509212022 | 68 | 83 | 0.9 | 3.5 | 0.00 | 0.00 | 0.00 | 66 | 1008.5 |
| 20260509211541 | 69 | 138 | 0.9 | 3.5 | 0.00 | 0.00 | 0.00 | 66 | 1008.4 |
| 20260509211019 | 69 | 61 | 0.9 | 3.5 | 0.00 | 0.00 | 0.00 | 65 | 1008.3 |
| 20260509210518 | 69 | 82 | 0.9 | 3.5 | 0.00 | 0.00 | 0.00 | 65 | 1008.4 |
| 20260509210040 | 69 | 17 | 0.0 | 3.5 | 0.00 | 0.00 | 0.00 | 63 | 1008.3 |
| 20260509205518 | 69 | 68 | 0.9 | 4.3 | 0.00 | 0.00 | 0.00 | 63 | 1008.3 |
| 20260509205021 | 69 | 51 | 0.9 | 4.3 | 0.00 | 0.00 | 0.00 | 64 | 1008.2 |
| 20260509204538 | 70 | 61 | 0.9 | 4.3 | 0.00 | 0.00 | 0.00 | 60 | 1008.2 |
| 20260509204021 | 71 | 26 | 0.9 | 2.6 | 0.00 | 0.00 | 0.00 | 60 | 1008.1 |
| 20260509203518 | 71 | 103 | 0.9 | 2.6 | 0.00 | 0.00 | 0.00 | 63 | 1008.0 |
| 20260509203051 | 71 | 169 | 0.0 | 1.7 | 0.00 | 0.00 | 0.00 | 65 | 1008.1 |
| 20260509202518 | 70 | 118 | 0.9 | 3.5 | 0.00 | 0.00 | 0.00 | 61 | 1008.2 |
| 20260509202019 | 70 | 145 | 0.0 | 3.5 | 0.00 | 0.00 | 0.00 | 61 | 1008.2 |
| 20260509201534 | 70 | 53 | 0.9 | 3.5 | 0.00 | 0.00 | 0.00 | 61 | 1008.4 |
| 20260509201019 | 70 | 92 | 0.0 | 2.6 | 0.00 | 0.00 | 0.00 | 65 | 1008.4 |
| 20260509200521 | 69 | 173 | 0.0 | 2.6 | 0.00 | 0.00 | 0.00 | 66 | 1008.6 |
| 20260509200047 | 69 | 57 | 0.9 | 5.2 | 0.00 | 0.00 | 0.00 | 63 | 1008.6 |
| 20260509195518 | 69 | 38 | 0.9 | 5.2 | 0.00 | 0.00 | 0.00 | 62 | 1008.6 |
| 20260509195018 | 69 | 221 | 0.9 | 2.6 | 0.00 | 0.00 | 0.00 | 62 | 1008.7 |
| 20260509194532 | 69 | 9 | 0.9 | 2.6 | 0.00 | 0.00 | 0.00 | 64 | 1008.7 |
| 20260509194020 | 68 | 98 | 0.0 | 1.7 | 0.00 | 0.00 | 0.00 | 67 | 1008.8 |
| 20260509193518 | 68 | 95 | 0.0 | 1.7 | 0.00 | 0.00 | 0.00 | 67 | 1008.9 |
| 20260509193038 | 68 | 29 | 0.9 | 1.7 | 0.00 | 0.00 | 0.00 | 63 | 1009.0 |
| 20260509192519 | 69 | 24 | 0.0 | 1.7 | 0.00 | 0.00 | 0.00 | 65 | 1009.1 |
| 20260509192019 | 70 | 23 | 0.0 | 1.7 | 0.00 | 0.00 | 0.00 | 61 | 1009.0 |
| 20260509191548 | 69 | 227 | 0.0 | 1.7 | 0.00 | 0.00 | 0.00 | 59 | 1009.0 |
| 20260509191020 | 69 | 238 | 0.0 | 1.7 | 0.00 | 0.00 | 0.00 | 60 | 1008.9 |
| 20260509190519 | 69 | 200 | 0.0 | 1.7 | 0.00 | 0.00 | 0.00 | 63 | 1009.0 |
| 20260509190034 | 68 | 35 | 0.9 | 1.7 | 0.00 | 0.00 | 0.00 | 59 | 1009.0 |
| 20260509185519 | 68 | 167 | 0.0 | 1.7 | 0.00 | 0.00 | 0.00 | 64 | 1009.2 |
| 20260509185021 | 67 | 308 | 0.0 | 1.7 | 0.00 | 0.00 | 0.00 | 68 | 1009.4 |
| 20260509184535 | 67 | 223 | 0.0 | 1.7 | 0.00 | 0.00 | 0.00 | 67 | 1009.7 |
| 20260509184018 | 67 | 196 | 0.0 | 1.7 | 0.00 | 0.00 | 0.00 | 63 | 1009.8 |
| 20260509183519 | 67 | 0 | 0.0 | 1.7 | 0.00 | 0.00 | 0.00 | 64 | 1009.6 |
| 20260509183039 | 67 | 0 | 0.0 | 1.7 | 0.00 | 0.00 | 0.00 | 63 | 1009.6 |
| 20260509182518 | 67 | 0 | 0.0 | 1.7 | 0.00 | 0.00 | 0.00 | 60 | 1009.6 |
| 20260509182019 | 68 | 199 | 0.9 | 1.7 | 0.00 | 0.00 | 0.00 | 58 | 1009.7 |
| 20260509181540 | 68 | 213 | 0.0 | 5.2 | 0.00 | 0.00 | 0.00 | 63 | 1009.8 |
| 20260509181019 | 68 | 276 | 0.0 | 5.2 | 0.00 | 0.00 | 0.00 | 62 | 1009.9 |
| 20260509180519 | 68 | 170 | 0.9 | 2.6 | 0.00 | 0.00 | 0.00 | 59 | 1010.1 |
| 20260509180039 | 68 | 101 | 0.0 | 1.7 | 0.00 | 0.00 | 0.00 | 63 | 1010.1 |
| 20260509175519 | 68 | 138 | 0.0 | 1.7 | 0.00 | 0.00 | 0.00 | 66 | 1010.3 |
| 20260509175018 | 67 | 0 | 0.0 | 1.7 | 0.00 | 0.00 | 0.00 | 65 | 1010.2 |
| 20260509174538 | 67 | 0 | 0.0 | 1.7 | 0.00 | 0.00 | 0.00 | 60 | 1010.1 |
| 20260509174022 | 67 | 207 | 0.0 | 1.7 | 0.00 | 0.00 | 0.00 | 63 | 1010.1 |
| 20260509173520 | 66 | 0 | 0.0 | 1.7 | 0.00 | 0.00 | 0.00 | 63 | 1010.2 |
| 20260509173033 | 66 | 252 | 0.0 | 1.7 | 0.00 | 0.00 | 0.00 | 64 | 1010.1 |
| 20260509172518 | 66 | 0 | 0.0 | 1.7 | 0.00 | 0.00 | 0.00 | 63 | 1010.2 |
| 20260509172020 | 66 | 0 | 0.0 | 1.7 | 0.00 | 0.00 | 0.00 | 64 | 1010.3 |
| 20260509171539 | 66 | 0 | 0.0 | 1.7 | 0.00 | 0.00 | 0.00 | 63 | 1010.3 |
| 20260509171017 | 66 | 234 | 0.0 | 1.7 | 0.00 | 0.00 | 0.00 | 64 | 1010.3 |
| 20260509170518 | 66 | 9 | 0.0 | 1.7 | 0.00 | 0.00 | 0.00 | 64 | 1010.4 |
| 20260509170039 | 66 | 0 | 0.0 | 1.7 | 0.00 | 0.00 | 0.00 | 64 | 1010.4 |
| 20260509165518 | 67 | 0 | 0.9 | 1.7 | 0.00 | 0.00 | 0.00 | 64 | 1010.3 |
| 20260509165019 | 67 | 57 | 0.0 | 1.7 | 0.00 | 0.00 | 0.00 | 65 | 1010.2 |
| 20260509164539 | 67 | 169 | 0.0 | 2.6 | 0.00 | 0.00 | 0.00 | 62 | 1010.2 |
| 20260509164019 | 68 | 198 | 0.9 | 2.6 | 0.00 | 0.00 | 0.00 | 57 | 1010.2 |
| 20260509163519 | 68 | 163 | 0.0 | 2.6 | 0.00 | 0.00 | 0.00 | 56 | 1010.2 |
| 20260509163034 | 68 | 99 | 0.0 | 7.0 | 0.00 | 0.00 | 0.00 | 59 | 1010.2 |
| 20260509162518 | 68 | 262 | 0.9 | 7.0 | 0.00 | 0.00 | 0.00 | 59 | 1010.2 |
| 20260509162018 | 68 | 167 | 0.9 | 7.0 | 0.00 | 0.00 | 0.00 | 56 | 1010.3 |
| 20260509161535 | 69 | 170 | 0.9 | 1.7 | 0.00 | 0.00 | 0.00 | 57 | 1010.4 |
| 20260509161019 | 69 | 215 | 0.0 | 3.5 | 0.00 | 0.00 | 0.00 | 58 | 1010.4 |
| 20260509160518 | 69 | 231 | 0.9 | 4.3 | 0.00 | 0.00 | 0.00 | 56 | 1010.5 |
| 20260509160039 | 68 | 169 | 0.9 | 4.3 | 0.00 | 0.00 | 0.00 | 58 | 1010.5 |
| 20260509155517 | 68 | 230 | 0.0 | 3.5 | 0.00 | 0.00 | 0.00 | 61 | 1010.6 |
| 20260509155017 | 68 | 0 | 0.9 | 3.5 | 0.00 | 0.00 | 0.00 | 60 | 1010.7 |
| 20260509154538 | 68 | 188 | 0.9 | 5.2 | 0.00 | 0.00 | 0.00 | 57 | 1010.7 |
| 20260509154019 | 68 | 111 | 1.7 | 5.2 | 0.00 | 0.00 | 0.00 | 56 | 1010.5 |
| 20260509153518 | 69 | 304 | 0.9 | 5.2 | 0.00 | 0.00 | 0.00 | 61 | 1010.6 |
| 20260509153039 | 68 | 188 | 1.7 | 5.2 | 0.00 | 0.00 | 0.00 | 58 | 1010.7 |
| 20260509152518 | 68 | 72 | 0.9 | 1.7 | 0.00 | 0.00 | 0.00 | 61 | 1010.8 |
| 20260509152019 | 67 | 278 | 0.9 | 1.7 | 0.00 | 0.00 | 0.00 | 59 | 1011.0 |
| 20260509151539 | 67 | 153 | 0.9 | 3.5 | 0.00 | 0.00 | 0.00 | 62 | 1011.0 |
| 20260509151019 | 66 | 351 | 0.0 | 3.5 | 0.00 | 0.00 | 0.00 | 59 | 1011.1 |
| 20260509150518 | 65 | 278 | 0.9 | 6.1 | 0.00 | 0.00 | 0.00 | 61 | 1011.2 |
| 20260509150038 | 65 | 252 | 0.9 | 6.1 | 0.00 | 0.00 | 0.00 | 64 | 1011.3 |
| 20260509145518 | 64 | 350 | 0.9 | 2.6 | 0.00 | 0.00 | 0.00 | 64 | 1011.3 |
| 20260509145018 | 64 | 198 | 0.0 | 4.3 | 0.00 | 0.00 | 0.00 | 65 | 1011.5 |
| 20260509144539 | 63 | 290 | 0.9 | 4.3 | 0.00 | 0.00 | 0.00 | 63 | 1011.5 |